[[{"header":{"parameterUnit":"m.s-1","parameterCategory":1,"la1":30.2991,"la2":30.254,"lo1":-89.0895,"lo2":-89.0444,"dy":0.0017,"dx":0.0017,"nx":28,"ny":28,"refTime":"2024-10-14T21:00:00:Z","depth":0,"parameterNumber":2,"parameterNumberName":"U-component_of_WINDS"},"data":[0,0,0,0,0,0,0,0,0,0,0,0,0,0,0,0,0,0,0,0,0,0,0,0,0,0,0,0,0,0,0,0,0,0,0,0,0,0,0,0,0,0,0,0,0,0,0,0,0,0,0,0,0,0,0,0,0,0,-4.4073,-4.4073,0,-4.4125,-4.4125,-4.4126,-4.4037,-4.4034,-4.403,-4.4028,-4.408,-4.4084,-4.4089,0,0,0,0,0,0,0,0,0,0,0,0,0,-4.3894,-4.3898,-4.4072,-4.4073,-4.4074,-4.4125,-4.4125,-4.4126,-4.4037,-4.4033,-4.403,-4.4026,-4.4079,-4.4084,-4.4089,0,0,0,0,0,0,0,0,0,0,0,0,0,-4.3962,-4.3899,-4.4072,-4.4035,-4.4033,-4.4125,-4.4126,-4.4126,-4.4038,-4.4033,-4.4029,-4.4025,-4.4077,-4.4083,-4.409,-4.422,0,0,-4.4109,-4.4112,0,0,0,0,0,0,0,0,-4.3958,-4.3968,-4.404,-4.4038,-4.4035,-4.407,-4.4082,-4.4158,-4.4039,-4.4036,-4.4028,-4.4022,-4.408,-4.4086,-4.4106,-4.4222,-4.4224,-4.411,-4.4113,-4.4116,-4.4118,0,0,0,0,0,0,0,-4.3953,-4.3965,-4.4093,-4.4041,-4.4038,-4.4016,-4.402,-4.4096,-4.4083,-4.4036,-4.4029,-4.4037,-4.4078,-4.41,-4.4106,-4.4225,-4.4109,-4.4115,-4.4119,-4.4121,-4.4451,-4.4455,0,0,0,0,0,0,-4.3953,-4.3962,-4.4091,-4.4095,-4.3985,-4.4023,-4.4028,-4.4063,-4.4082,-4.408,-4.4041,-4.4033,-4.4091,-4.4099,-4.4108,-4.4262,-4.4116,-4.4122,-4.4126,-4.4446,-4.4452,-4.4457,0,0,0,0,0,0,-4.395,-4.3966,-4.4089,-4.4027,-4.4041,-4.4031,-4.4071,-4.4067,-4.4088,-4.4086,-4.4083,-4.4066,-4.4088,-4.4099,-4.4193,-4.4262,-4.4125,-4.4131,-4.444,-4.4448,-4.4454,-4.457,0,0,0,0,0,0,-4.3945,-4.3965,-4.4015,-4.4029,-4.4044,-4.4174,-4.4075,-4.4071,-4.41,-4.4089,-4.4108,-4.4107,-4.4085,-4.4184,-4.4199,-4.4268,-4.4136,-4.4434,-4.4443,-4.4452,-4.456,-4.4581,-4.4598,0,0,0,0,0,-4.3939,-4.4045,-4.4018,-4.4034,-4.4106,-4.4178,-4.4187,-4.4161,-4.4106,-4.4155,-4.4153,-4.4106,-4.4252,-4.4194,-4.4211,-4.4283,-4.4429,-4.4441,-4.4451,-4.4552,-4.4577,-4.4598,0,0,0,0,0,0,-4.4039,-4.4046,-4.4016,-4.413,-4.4154,-4.4163,-4.4225,-4.4188,-4.4228,-4.4217,-4.4182,-4.4187,-4.4288,-4.4294,-4.423,-4.441,-4.4331,-4.4346,-4.4402,-4.4426,-4.4444,-4.4441,-4.4141,0,0,0,0,0,-4.4075,-4.4133,-4.4135,-4.4235,-4.4249,-4.4235,-4.4265,-4.4243,-4.4266,-4.4276,-4.4281,-4.4306,-4.4357,-4.4391,-4.4438,-4.456,-4.4563,-4.4618,-4.4637,-4.4653,-4.4666,-4.4731,-4.4756,-4.4494,-4.4493,-4.4493,0,0,-4.4148,-4.4159,-4.4198,-4.4256,-4.4272,-4.4333,-4.4244,-4.4312,-4.4357,-4.4286,-4.4375,-4.438,-4.4405,-4.4513,-4.4561,-4.4522,-4.4739,-4.4667,-4.468,-4.4685,-4.4745,-4.477,-4.4792,-4.4501,-4.45,-4.4499,0,0,-4.4313,-4.4328,-4.4413,-4.4431,-4.4457,-4.4446,-4.4467,-4.4482,-4.4482,-4.4571,-4.4519,-4.4571,-4.466,-4.468,-4.4702,-4.4875,-4.4833,-4.4891,-4.4991,-4.5055,-4.5075,-4.5093,-4.5155,-4.5178,-4.4904,-4.4905,-4.4905,0,-4.4402,-4.4491,-4.4461,-4.4533,-4.456,-4.4499,-4.4584,-4.4603,-4.4643,-4.4663,-4.4618,-4.4729,-4.4741,-4.4854,-4.4896,-4.4915,-4.4937,-4.4889,-4.5075,-4.5093,-4.5109,-4.5168,-4.5191,-4.4912,-4.4911,-4.491,-4.4909,0,-4.4599,-4.4662,-4.4727,-4.4768,-4.4802,-4.488,-4.4861,-4.4899,-4.4874,-4.4868,-4.4959,-4.4972,-4.5021,-4.5045,-4.5021,-4.5154,-4.5129,-4.5081,-4.5001,-4.5142,-4.5196,-4.5218,-4.4921,-4.4919,-4.4917,-4.4915,0,0,-4.4829,-4.4852,-4.4877,-4.4894,-4.4918,-4.4966,-4.5041,-4.5089,-4.5123,-4.5152,-4.5214,-4.5291,-4.5246,-4.5271,-4.5247,-4.5304,-4.544,-4.5247,-4.5247,-4.5283,-4.5588,-4.5625,-4.5652,-4.5412,-4.5416,-4.5419,-4.5586,0,-4.4994,-4.5125,-4.5099,-4.5227,-4.5285,-4.5227,-4.5293,-4.5315,-4.5312,-4.536,-4.5355,-4.5411,-4.5347,-4.5361,-4.5414,-4.5412,-4.5501,-4.54,-4.5469,-4.5472,-4.5466,-4.568,-4.5719,-4.5876,-4.5607,-4.5611,-4.5613,0,-4.5204,-4.5242,-4.5375,-4.539,-4.5413,-4.5473,-4.5515,-4.5561,-4.5585,-4.5578,-4.5606,-4.5572,-4.5647,-4.5566,-4.5668,-4.56,-4.5627,-4.563,-4.5635,-4.5641,-4.5552,-4.5692,-4.5925,-4.5949,-4.5646,-4.5644,-4.5641,0,-4.5359,-4.5444,-4.5534,-4.5551,-4.557,-4.5614,-4.5624,-4.5642,-4.5673,-4.5709,-4.5728,-4.5772,-4.5797,-4.5832,-4.581,-4.5754,-4.5916,-4.5834,-4.5913,-4.5914,-4.595,-4.5948,-4.6192,-4.5967,-4.5967,-4.5966,-4.5966,0,-4.5547,-4.5631,-4.5604,-4.5661,-4.5753,-4.5722,-4.5814,-4.5817,-4.5834,-4.589,-4.5842,-4.5895,-4.5864,-4.5914,-4.5898,-4.5985,-4.5996,-4.5992,-4.5987,-4.5997,-4.5998,-4.6015,-4.6004,-4.5972,-4.5971,-4.597,-4.5969,0,-4.5736,-4.5722,-4.5817,-4.5828,-4.5832,-4.59,-4.5909,-4.5961,-4.5954,-4.6024,-4.6039,-4.6028,-4.6084,-4.6067,-4.6127,-4.6116,-4.6227,-4.6207,-4.6219,-4.6215,-4.6295,-4.6288,-4.6558,-4.6592,-4.6345,-4.6348,-4.635,0,-4.5857,-4.592,-4.5938,-4.5972,-4.5985,-4.604,-4.6071,-4.6043,-4.6077,-4.6108,-4.6156,-4.6209,-4.6249,-4.6342,-4.6339,-4.6385,-4.6366,-4.6458,-4.6373,-4.6381,-4.6368,-4.6365,-4.6371,-4.6475,-4.6478,-4.648,-4.6482,0,-4.6073,-4.6063,-4.6109,-4.6154,-4.6192,-4.6225,-4.6254,-4.6285,-4.6258,-4.6299,-4.6356,-4.6388,-4.645,-4.6502,-4.6544,-4.6553,-4.6514,-4.6509,-4.653,-4.6541,-4.6545,-4.6544,-4.6266,-4.6503,-4.6501,-4.6499,-4.6498,-4.6497,-4.6232,-4.6286,-4.6306,-4.636,-4.6379,-4.6407,-4.6456,-4.6456,-4.6503,-4.6552,-4.6532,-4.6598,-4.6619,-4.6671,-4.6686,-4.6737,-4.6702,-4.6732,-4.674,-4.6748,-4.6758,-4.6537,-4.6744,-4.6744,-4.6743,-4.6743,-4.6742,0,-4.6446,-4.6456,-4.6506,-4.6548,-4.659,-4.6549,-4.6579,-4.6617,-4.6676,-4.6699,-4.674,-4.6805,-4.6856,-4.6857,-4.6904,-4.6945,-4.6928,-4.6958,-4.6955,-4.6958,-4.6787,-4.6764,-4.6971,-4.6971,-4.6971,-4.6971,-4.6971,-4.6971,-4.6562,-4.6651,-4.6643,-4.6741,-4.675,-4.6815,-4.6836,-4.6861,-4.688,-4.6956,-4.6998,-4.6998,-4.7012,-4.7059,-4.7104,-4.7103,-4.7122,-4.716,-4.7152,-4.6992,-4.697,-4.6948,-4.6927,-4.7164,-4.7165,-4.7319,-4.732,-4.7321]},{"header":{"parameterUnit":"m.s-1","parameterCategory":1,"la1":30.2991,"la2":30.254,"lo1":-89.0895,"lo2":-89.0444,"dy":0.0017,"dx":0.0017,"nx":28,"ny":28,"refTime":"2024-10-14T21:00:00:Z","depth":0,"parameterNumber":3,"parameterNumberName":"V-component_of_WINDS"},"data":[0,0,0,0,0,0,0,0,0,0,0,0,0,0,0,0,0,0,0,0,0,0,0,0,0,0,0,0,0,0,0,0,0,0,0,0,0,0,0,0,0,0,0,0,0,0,0,0,0,0,0,0,0,0,0,0,0,0,-9.5048,-9.5049,0,-9.5128,-9.5129,-9.513,-9.5006,-9.5002,-9.4997,-9.4993,-9.5068,-9.5074,-9.508,0,0,0,0,0,0,0,0,0,0,0,0,0,-9.4781,-9.4786,-9.5048,-9.5049,-9.505,-9.5128,-9.5129,-9.513,-9.5007,-9.5001,-9.4996,-9.4991,-9.5066,-9.5074,-9.5081,0,0,0,0,0,0,0,0,0,0,0,0,0,-9.4882,-9.4788,-9.5047,-9.4998,-9.4994,-9.5128,-9.5129,-9.513,-9.5008,-9.5001,-9.4995,-9.4989,-9.5064,-9.5073,-9.5082,-9.5265,0,0,-9.5109,-9.5113,0,0,0,0,0,0,0,0,-9.4877,-9.4892,-9.5004,-9.5001,-9.4998,-9.5051,-9.5062,-9.5175,-9.5009,-9.5002,-9.4993,-9.4986,-9.5067,-9.5075,-9.5104,-9.5269,-9.5272,-9.511,-9.5115,-9.5119,-9.5122,0,0,0,0,0,0,0,-9.487,-9.4888,-9.5079,-9.5006,-9.5002,-9.4969,-9.4977,-9.5083,-9.5069,-9.5002,-9.4994,-9.5005,-9.5064,-9.5096,-9.5105,-9.5273,-9.511,-9.5118,-9.5123,-9.5127,-9.5592,-9.5598,0,0,0,0,0,0,-9.487,-9.4883,-9.5076,-9.5081,-9.492,-9.4979,-9.4987,-9.504,-9.5068,-9.5066,-9.5011,-9.4999,-9.5084,-9.5095,-9.5107,-9.5324,-9.5119,-9.5127,-9.5133,-9.5585,-9.5593,-9.5601,0,0,0,0,0,0,-9.4865,-9.4888,-9.5073,-9.498,-9.5001,-9.4991,-9.5051,-9.5045,-9.5077,-9.5074,-9.5071,-9.5046,-9.5079,-9.5095,-9.5227,-9.5325,-9.5132,-9.514,-9.5577,-9.5587,-9.5597,-9.5759,0,0,0,0,0,0,-9.4857,-9.4887,-9.4958,-9.4983,-9.5007,-9.5195,-9.5057,-9.5051,-9.5093,-9.5079,-9.5107,-9.5105,-9.5075,-9.5215,-9.5236,-9.5334,-9.5147,-9.5568,-9.5581,-9.5594,-9.5745,-9.5774,-9.5799,0,0,0,0,0,-9.4848,-9.4999,-9.4963,-9.4987,-9.5096,-9.52,-9.5214,-9.5179,-9.5102,-9.5172,-9.5171,-9.5104,-9.5311,-9.5229,-9.5253,-9.5354,-9.5561,-9.5578,-9.5593,-9.5733,-9.5768,-9.5798,0,0,0,0,0,0,-9.4983,-9.5001,-9.4961,-9.5125,-9.5163,-9.5179,-9.5267,-9.5217,-9.5275,-9.5259,-9.5211,-9.5218,-9.5361,-9.537,-9.5279,-9.5533,-9.5423,-9.5444,-9.5522,-9.5555,-9.5581,-9.5576,-9.5154,0,0,0,0,0,-9.5033,-9.5119,-9.5129,-9.5272,-9.5293,-9.5278,-9.5322,-9.5292,-9.5328,-9.5342,-9.535,-9.5386,-9.5458,-9.5507,-9.5574,-9.5746,-9.575,-9.5827,-9.5854,-9.5876,-9.5895,-9.5986,-9.602,-9.5652,-9.5652,-9.5652,0,0,-9.5134,-9.5155,-9.5211,-9.53,-9.5325,-9.5413,-9.5291,-9.5389,-9.5453,-9.5356,-9.5482,-9.549,-9.5526,-9.568,-9.5747,-9.5692,-9.5997,-9.5896,-9.5914,-9.592,-9.6006,-9.6041,-9.6072,-9.5663,-9.5661,-9.5659,0,0,-9.5365,-9.539,-9.5512,-9.5541,-9.5583,-9.5571,-9.5601,-9.5626,-9.5628,-9.5755,-9.5684,-9.5758,-9.5885,-9.5914,-9.5946,-9.6189,-9.613,-9.6212,-9.6351,-9.6441,-9.647,-9.6495,-9.6582,-9.6613,-9.6231,-9.6231,-9.6231,0,-9.5485,-9.5617,-9.558,-9.5685,-9.5725,-9.5644,-9.5766,-9.5795,-9.5856,-9.5884,-9.5822,-9.598,-9.5999,-9.6158,-9.6218,-9.6246,-9.6277,-9.6208,-9.6469,-9.6494,-9.6518,-9.6599,-9.6632,-9.6241,-9.624,-9.6239,-9.6238,0,-9.5763,-9.5856,-9.5949,-9.6013,-9.6064,-9.6177,-9.6155,-9.621,-9.6176,-9.6171,-9.6301,-9.6321,-9.6391,-9.6426,-9.6393,-9.6581,-9.6545,-9.6478,-9.6365,-9.6563,-9.6639,-9.667,-9.6255,-9.6251,-9.6248,-9.6246,0,0,-9.6079,-9.6123,-9.6158,-9.6186,-9.6227,-9.6296,-9.6405,-9.6476,-9.6524,-9.6569,-9.6657,-9.6768,-9.6705,-9.6741,-9.671,-9.6789,-9.698,-9.6711,-9.6711,-9.676,-9.7188,-9.7239,-9.7276,-9.6942,-9.6948,-9.6952,-9.7185,0,-9.6308,-9.6499,-9.647,-9.6652,-9.6737,-9.6662,-9.6756,-9.6791,-9.6789,-9.6859,-9.6855,-9.6934,-9.6847,-9.6868,-9.6943,-9.6942,-9.7065,-9.6924,-9.7022,-9.7026,-9.7015,-9.7315,-9.7369,-9.7587,-9.7214,-9.7219,-9.7223,0,-9.6601,-9.666,-9.6853,-9.6881,-9.6916,-9.7001,-9.7064,-9.7133,-9.7169,-9.7162,-9.7204,-9.7159,-9.7265,-9.7153,-9.7298,-9.7203,-9.7241,-9.7247,-9.7254,-9.7261,-9.7136,-9.733,-9.7656,-9.7689,-9.7269,-9.7266,-9.7262,0,-9.6812,-9.6939,-9.7071,-9.7097,-9.7134,-9.7196,-9.7213,-9.7244,-9.7289,-9.7343,-9.7372,-9.7437,-9.7472,-9.7523,-9.7496,-9.7417,-9.7646,-9.7531,-9.7641,-9.7642,-9.7692,-9.7689,-9.8029,-9.7719,-9.7718,-9.7717,-9.7717,0,-9.7071,-9.7191,-9.7166,-9.7247,-9.738,-9.7344,-9.7475,-9.7483,-9.7512,-9.7591,-9.753,-9.7605,-9.7565,-9.7638,-9.7617,-9.774,-9.7756,-9.7752,-9.7745,-9.7758,-9.7758,-9.7781,-9.7765,-9.7726,-9.7724,-9.7722,-9.7721,0,-9.7328,-9.7317,-9.7455,-9.748,-9.7489,-9.7585,-9.7605,-9.7679,-9.7674,-9.7775,-9.7797,-9.7788,-9.7869,-9.7848,-9.7936,-9.7922,-9.8078,-9.8051,-9.8066,-9.806,-9.8171,-9.8161,-9.8536,-9.8583,-9.8244,-9.8247,-9.825,0,-9.7494,-9.7585,-9.7621,-9.7671,-9.7695,-9.7776,-9.7823,-9.7791,-9.7841,-9.7891,-9.7959,-9.8036,-9.8096,-9.823,-9.8229,-9.8296,-9.8271,-9.8398,-9.828,-9.829,-9.8272,-9.8267,-9.8275,-9.8421,-9.8425,-9.8428,-9.8431,0,-9.7789,-9.7779,-9.785,-9.792,-9.7978,-9.803,-9.8076,-9.812,-9.8091,-9.8151,-9.8236,-9.8282,-9.8374,-9.8451,-9.8513,-9.8527,-9.8475,-9.8468,-9.8497,-9.851,-9.8515,-9.8513,-9.8129,-9.8459,-9.8456,-9.8454,-9.8453,-9.8452,-9.8004,-9.8083,-9.8121,-9.8202,-9.8234,-9.8279,-9.8351,-9.8356,-9.8427,-9.8501,-9.8477,-9.8573,-9.8607,-9.8685,-9.8709,-9.8782,-9.8733,-9.8775,-9.8786,-9.8796,-9.881,-9.8505,-9.8793,-9.8792,-9.8791,-9.8791,-9.879,0,-9.8296,-9.8317,-9.8392,-9.8461,-9.8525,-9.8472,-9.8521,-9.8577,-9.8663,-9.8701,-9.8762,-9.8859,-9.8934,-9.894,-9.901,-9.9067,-9.9045,-9.9086,-9.9081,-9.9085,-9.885,-9.8818,-9.9104,-9.9103,-9.9103,-9.9103,-9.9103,-9.9103,-9.8455,-9.8585,-9.858,-9.8724,-9.8743,-9.884,-9.8872,-9.8913,-9.8943,-9.9055,-9.9118,-9.9123,-9.9148,-9.9219,-9.9284,-9.9284,-9.9312,-9.9363,-9.9353,-9.9133,-9.9102,-9.9072,-9.9042,-9.937,-9.937,-9.9582,-9.9584,-9.9586]}]]